| time (UTC) | temp C | wind direction | speed KPH | gust KPH | rain 1hr cm | rain 24hr cm | rain mn cm | humidity % | barometer mb |
| 20260905183032 | 18 | 0.0 | 0.0 | 0.00 | 0.05 | 0.05 | 64 | 1020.3 | |
| 20260905182052 | 18 | 0.0 | 0.0 | 0.00 | 0.05 | 0.05 | 63 | 1020.3 | |
| 20260905181045 | 18 | 0.0 | 0.0 | 0.00 | 0.05 | 0.05 | 62 | 1020.4 | |
| 20260905180022 | 19 | 0.0 | 0.0 | 0.00 | 0.05 | 0.05 | 60 | 1020.0 | |
| 20260905175024 | 20 | 0.0 | 0.0 | 0.00 | 0.05 | 0.05 | 59 | 1020.1 | |
| 20260905174031 | 20 | 0.0 | 0.0 | 0.00 | 0.05 | 0.05 | 57 | 1019.7 | |
| 20260905173029 | 20 | 321 | 0.0 | 1.6 | 0.00 | 0.05 | 0.05 | 55 | 1019.7 |
| 20260905172026 | 20 | 285 | 1.6 | 4.8 | 0.00 | 0.05 | 0.05 | 55 | 1019.7 |
| 20260905171026 | 20 | 321 | 0.0 | 0.0 | 0.00 | 0.05 | 0.05 | 56 | 1019.8 |
| 20260905170024 | 20 | 246 | 0.0 | 1.6 | 0.00 | 0.05 | 0.05 | 55 | 1019.5 |
| 20260905165052 | 21 | 270 | 0.0 | 0.0 | 0.00 | 0.05 | 0.05 | 55 | 1019.5 |
| 20260905164033 | 21 | 0.0 | 0.0 | 0.00 | 0.05 | 0.05 | 53 | 1019.5 | |
| 20260905163054 | 21 | 311 | 0.0 | 1.6 | 0.00 | 0.05 | 0.05 | 51 | 1019.5 |
| 20260905162037 | 21 | 292 | 0.0 | 0.0 | 0.00 | 0.05 | 0.05 | 50 | 1019.6 |
| 20260905161046 | 22 | 290 | 0.0 | 1.6 | 0.00 | 0.05 | 0.05 | 49 | 1019.6 |
| 20260905160047 | 22 | 264 | 1.6 | 4.8 | 0.00 | 0.05 | 0.05 | 48 | 1019.3 |
| 20260905155022 | 22 | 309 | 0.0 | 1.6 | 0.00 | 0.05 | 0.05 | 48 | 1019.3 |
| 20260905154031 | 23 | 295 | 1.6 | 6.4 | 0.00 | 0.05 | 0.05 | 47 | 1019.3 |
| 20260905153023 | 23 | 278 | 3.2 | 6.4 | 0.00 | 0.05 | 0.05 | 45 | 1019.4 |
| 20260905152025 | 25 | 291 | 3.2 | 6.4 | 0.00 | 0.05 | 0.05 | 44 | 1019.4 |
| 20260905151042 | 26 | 282 | 1.6 | 4.8 | 0.00 | 0.05 | 0.05 | 43 | 1019.5 |
| 20260905150024 | 26 | 288 | 0.0 | 1.6 | 0.00 | 0.05 | 0.05 | 44 | 1019.2 |
| 20260905145022 | 25 | 336 | 1.6 | 4.8 | 0.00 | 0.05 | 0.05 | 44 | 1019.2 |
| 20260905144041 | 25 | 317 | 1.6 | 3.2 | 0.00 | 0.05 | 0.05 | 44 | 1019.2 |
| 20260905143034 | 25 | 327 | 1.6 | 4.8 | 0.00 | 0.05 | 0.05 | 44 | 1019.2 |
| 20260905142055 | 25 | 320 | 1.6 | 3.2 | 0.00 | 0.05 | 0.05 | 45 | 1019.2 |
| 20260905141025 | 25 | 329 | 1.6 | 4.8 | 0.00 | 0.05 | 0.05 | 46 | 1019.5 |
| 20260905140031 | 25 | 304 | 1.6 | 4.8 | 0.00 | 0.05 | 0.05 | 44 | 1019.2 |
| 20260905135024 | 26 | 254 | 1.6 | 4.8 | 0.00 | 0.05 | 0.05 | 44 | 1019.3 |
| 20260905134028 | 25 | 300 | 1.6 | 3.2 | 0.00 | 0.05 | 0.05 | 46 | 1019.6 |
| 20260905133102 | 25 | 344 | 1.6 | 4.8 | 0.00 | 0.05 | 0.05 | 46 | 1019.6 |
| 20260905132024 | 25 | 302 | 1.6 | 1.6 | 0.00 | 0.05 | 0.05 | 47 | 1019.6 |
| 20260905131024 | 25 | 334 | 1.6 | 4.8 | 0.00 | 0.05 | 0.05 | 46 | 1019.6 |
| 20260905130029 | 24 | 330 | 1.6 | 6.4 | 0.00 | 0.05 | 0.05 | 48 | 1019.5 |
| 20260905125023 | 24 | 350 | 1.6 | 6.4 | 0.00 | 0.05 | 0.05 | 48 | 1019.5 |
| 20260905124033 | 23 | 289 | 0.0 | 4.8 | 0.00 | 0.05 | 0.05 | 50 | 1019.5 |
| 20260905123056 | 23 | 340 | 0.0 | 3.2 | 0.00 | 0.05 | 0.05 | 51 | 1019.5 |
| 20260905122025 | 23 | 306 | 1.6 | 3.2 | 0.00 | 0.05 | 0.05 | 51 | 1019.5 |
| 20260905121111 | 22 | 268 | 3.2 | 6.4 | 0.00 | 0.05 | 0.05 | 51 | 1019.4 |
| 20260905120023 | 22 | 261 | 4.8 | 8.0 | 0.00 | 0.05 | 0.05 | 51 | 1019.4 |
| 20260905115023 | 22 | 283 | 4.8 | 8.0 | 0.00 | 0.05 | 0.05 | 53 | 1019.4 |
| 20260905114028 | 22 | 270 | 4.8 | 8.0 | 0.00 | 0.05 | 0.05 | 54 | 1019.8 |
| 20260905113027 | 22 | 275 | 4.8 | 8.0 | 0.00 | 0.05 | 0.05 | 56 | 1019.7 |
| 20260905112108 | 22 | 267 | 3.2 | 8.0 | 0.00 | 0.05 | 0.05 | 56 | 1019.7 |
| 20260905111023 | 22 | 262 | 1.6 | 6.4 | 0.00 | 0.05 | 0.05 | 59 | 1019.7 |
| 20260905110023 | 21 | 286 | 1.6 | 8.0 | 0.00 | 0.05 | 0.05 | 63 | 1020.0 |
| 20260905105025 | 21 | 0.0 | 0.0 | 0.00 | 0.05 | 0.05 | 65 | 1020.0 | |
| 20260905104022 | 21 | 266 | 0.0 | 1.6 | 0.00 | 0.05 | 0.05 | 65 | 1020.0 |
| 20260905103038 | 21 | 245 | 1.6 | 9.7 | 0.00 | 0.05 | 0.05 | 66 | 1020.0 |
| 20260905102049 | 21 | 274 | 1.6 | 6.4 | 0.00 | 0.05 | 0.05 | 66 | 1020.0 |
| 20260905101103 | 21 | 245 | 0.0 | 3.2 | 0.00 | 0.05 | 0.05 | 66 | 1020.4 |
| 20260905100026 | 20 | 281 | 1.6 | 6.4 | 0.00 | 0.05 | 0.05 | 68 | 1020.0 |
| 20260905095024 | 20 | 267 | 1.6 | 6.4 | 0.00 | 0.05 | 0.05 | 71 | 1020.0 |
| 20260905094056 | 20 | 256 | 3.2 | 8.0 | 0.00 | 0.05 | 0.05 | 71 | 1020.3 |
| 20260905093037 | 20 | 250 | 1.6 | 6.4 | 0.00 | 0.05 | 0.05 | 72 | 1020.6 |
| 20260905092025 | 20 | 242 | 1.6 | 4.8 | 0.00 | 0.05 | 0.05 | 73 | 1020.6 |
| 20260905091052 | 18 | 291 | 0.0 | 3.2 | 0.00 | 0.05 | 0.05 | 76 | 1020.2 |
| 20260905090020 | 17 | 280 | 3.2 | 6.4 | 0.00 | 0.05 | 0.05 | 78 | 1020.5 |
| 20260905085033 | 17 | 267 | 1.6 | 4.8 | 0.00 | 0.05 | 0.05 | 80 | 1020.5 |
| 20260905084052 | 16 | 270 | 1.6 | 8.0 | 0.00 | 0.05 | 0.05 | 82 | 1020.4 |
| 20260905083037 | 16 | 277 | 1.6 | 4.8 | 0.00 | 0.05 | 0.05 | 84 | 1020.8 |
| 20260905082131 | 16 | 290 | 0.0 | 4.8 | 0.00 | 0.05 | 0.05 | 85 | 1020.7 |
| 20260905081032 | 15 | 279 | 0.0 | 4.8 | 0.00 | 0.05 | 0.05 | 86 | 1019.8 |
| 20260905080035 | 15 | 260 | 0.0 | 1.6 | 0.00 | 0.05 | 0.05 | 87 | 1019.8 |
| 20260905075026 | 15 | 0.0 | 0.0 | 0.03 | 0.05 | 0.05 | 88 | 1019.8 | |
| 20260905074021 | 15 | 0.0 | 0.0 | 0.03 | 0.05 | 0.05 | 89 | 1019.4 | |
| 20260905073035 | 15 | 0.0 | 0.0 | 0.05 | 0.05 | 0.05 | 89 | 1018.8 | |
| 20260905072045 | 15 | 0.0 | 0.0 | 0.05 | 0.05 | 0.05 | 88 | 1018.8 | |
| 20260905071034 | 15 | 261 | 0.0 | 3.2 | 0.05 | 0.05 | 0.05 | 87 | 1019.1 |
| 20260905070045 | 15 | 265 | 1.6 | 4.8 | 0.05 | 0.05 | 0.05 | 87 | 1019.5 |
| 20260905065037 | 16 | 287 | 1.6 | 4.8 | 0.03 | 0.03 | 0.03 | 85 | 1019.6 |
| 20260905064054 | 16 | 317 | 0.0 | 3.2 | 0.03 | 0.03 | 0.03 | 85 | 1019.2 |
| 20260905063108 | 16 | 256 | 1.6 | 4.8 | 0.00 | 0.00 | 0.00 | 86 | 1019.0 |
| 20260905062033 | 16 | 239 | 0.0 | 4.8 | 0.00 | 0.00 | 0.00 | 87 | 1019.0 |
| 20260905061040 | 16 | 323 | 0.0 | 1.6 | 0.00 | 0.00 | 0.00 | 88 | 1019.0 |
| 20260905060046 | 16 | 280 | 1.6 | 4.8 | 0.00 | 0.00 | 0.00 | 87 | 1019.1 |
| 20260905055050 | 16 | 290 | 0.0 | 0.0 | 0.00 | 0.00 | 0.00 | 87 | 1019.1 |
| 20260905054023 | 16 | 0.0 | 0.0 | 0.00 | 0.00 | 0.00 | 87 | 1018.8 | |
| 20260905053024 | 16 | 0.0 | 0.0 | 0.00 | 0.00 | 0.00 | 86 | 1018.5 | |
| 20260905052048 | 16 | 0.0 | 0.0 | 0.00 | 0.00 | 0.00 | 85 | 1018.5 | |
| 20260905051027 | 16 | 0.0 | 0.0 | 0.00 | 0.00 | 0.00 | 84 | 1018.8 | |
| 20260905050034 | 17 | 0.0 | 0.0 | 0.00 | 0.00 | 0.00 | 84 | 1018.8 | |
| 20260905045020 | 17 | 0.0 | 0.0 | 0.00 | 0.00 | 0.00 | 83 | 1018.8 | |
| 20260905044022 | 17 | 0.0 | 0.0 | 0.00 | 0.00 | 0.00 | 81 | 1017.9 | |
| 20260905043024 | 17 | 0.0 | 0.0 | 0.00 | 0.00 | 0.00 | 79 | 1018.2 | |
| 20260905042100 | 18 | 177 | 0.0 | 0.0 | 0.00 | 0.00 | 0.00 | 77 | 1018.2 |
| 20260905041034 | 18 | 0.0 | 0.0 | 0.00 | 0.00 | 0.00 | 75 | 1017.9 | |
| 20260905040022 | 18 | 170 | 0.0 | 0.0 | 0.00 | 0.00 | 0.00 | 74 | 1016.9 |
| 20260905035031 | 18 | 237 | 0.0 | 0.0 | 0.00 | 0.00 | 0.00 | 74 | 1016.9 |
| 20260905034036 | 18 | 48 | 0.0 | 0.0 | 0.00 | 0.00 | 0.00 | 73 | 1016.9 |
| 20260905033048 | 18 | 46 | 0.0 | 0.0 | 0.00 | 0.00 | 0.00 | 73 | 1016.7 |
| 20260905032028 | 18 | 326 | 0.0 | 0.0 | 0.00 | 0.00 | 0.00 | 72 | 1016.7 |
| 20260905031030 | 18 | 98 | 0.0 | 1.6 | 0.00 | 0.00 | 0.00 | 73 | 1016.4 |
| 20260905030025 | 18 | 0.0 | 0.0 | 0.00 | 0.00 | 0.00 | 72 | 1015.6 | |
| 20260905025032 | 18 | 0.0 | 0.0 | 0.00 | 0.00 | 0.00 | 71 | 1015.7 | |
| 20260905024035 | 18 | 0.0 | 0.0 | 0.00 | 0.00 | 0.00 | 71 | 1016.4 | |
| 20260905023051 | 18 | 0.0 | 0.0 | 0.00 | 0.00 | 0.00 | 70 | 1015.6 | |
| 20260905022022 | 19 | 0.0 | 0.0 | 0.00 | 0.00 | 0.00 | 69 | 1015.7 | |
| 20260905021050 | 20 | 351 | 0.0 | 1.6 | 0.00 | 0.00 | 0.00 | 68 | 1016.0 |
| 20260905020033 | 20 | 318 | 0.0 | 3.2 | 0.00 | 0.00 | 0.00 | 69 | 1016.0 |
| 20260905015031 | 20 | 352 | 0.0 | 4.8 | 0.00 | 0.00 | 0.00 | 68 | 1016.0 |
| 20260905014049 | 20 | 325 | 0.0 | 3.2 | 0.00 | 0.00 | 0.00 | 68 | 1015.7 |
| 20260905013028 | 20 | 348 | 0.0 | 1.6 | 0.00 | 0.00 | 0.00 | 69 | 1015.3 |
| 20260905012030 | 21 | 318 | 1.6 | 3.2 | 0.00 | 0.00 | 0.00 | 70 | 1015.4 |
| 20260905011029 | 20 | 13 | 1.6 | 6.4 | 0.00 | 0.00 | 0.00 | 70 | 1015.3 |
| 20260905010026 | 20 | 0 | 1.6 | 6.4 | 0.00 | 0.00 | 0.00 | 68 | 1014.0 |
| 20260905005047 | 20 | 0.0 | 0.0 | 0.00 | 0.00 | 0.00 | 68 | 1013.9 | |
| 20260905004050 | 20 | 0.0 | 0.0 | 0.00 | 0.00 | 0.00 | 68 | 1013.6 | |
| 20260905003036 | 20 | 0.0 | 0.0 | 0.00 | 0.00 | 0.00 | 68 | 1013.6 | |
| 20260905002046 | 21 | 0.0 | 0.0 | 0.00 | 0.00 | 0.00 | 67 | 1013.6 | |
| 20260905001047 | 21 | 0.0 | 0.0 | 0.00 | 0.00 | 0.00 | 65 | 1013.3 | |
| 20260905000050 | 21 | 242 | 0.0 | 3.2 | 0.00 | 0.00 | 0.00 | 64 | 1012.9 |
| 20260904235059 | 21 | 312 | 0.0 | 4.8 | 0.00 | 0.00 | 0.00 | 65 | 1013.0 |
| 20260904234025 | 21 | 292 | 0.0 | 0.0 | 0.00 | 0.00 | 0.00 | 66 | 1013.3 |
| 20260904233103 | 21 | 280 | 0.0 | 3.2 | 0.00 | 0.00 | 0.00 | 65 | 1012.9 |
| 20260904232024 | 21 | 285 | 1.6 | 3.2 | 0.00 | 0.00 | 0.00 | 66 | 1012.9 |
| 20260904231022 | 20 | 272 | 0.0 | 1.6 | 0.00 | 0.00 | 0.00 | 68 | 1012.9 |
| 20260904230021 | 19 | 0.0 | 0.0 | 0.00 | 0.00 | 0.00 | 71 | 1012.9 | |
| 20260904225025 | 18 | 0.0 | 0.0 | 0.00 | 0.00 | 0.00 | 75 | 1012.8 | |
| 20260904224025 | 18 | 0.0 | 0.0 | 0.00 | 0.00 | 0.00 | 75 | 1012.8 | |
| 20260904223021 | 19 | 0.0 | 0.0 | 0.00 | 0.00 | 0.00 | 74 | 1012.8 | |
| 20260904222025 | 19 | 0.0 | 0.0 | 0.00 | 0.00 | 0.00 | 73 | 1012.8 | |
| 20260904221034 | 20 | 0.0 | 0.0 | 0.00 | 0.00 | 0.00 | 71 | 1012.8 | |
| 20260904215024 | 20 | 0.0 | 0.0 | 0.00 | 0.00 | 0.00 | 70 | 1012.8 | |
| 20260904214102 | 20 | 0.0 | 0.0 | 0.00 | 0.00 | 0.00 | 70 | 1012.8 | |
| 20260904213051 | 21 | 0.0 | 0.0 | 0.00 | 0.00 | 0.00 | 69 | 1012.9 | |
| 20260904212019 | 21 | 0.0 | 0.0 | 0.00 | 0.00 | 0.00 | 67 | 1013.0 | |
| 20260904211020 | 21 | 315 | 0.0 | 0.0 | 0.00 | 0.00 | 0.00 | 66 | 1012.9 |
| 20260904210054 | 20 | 0.0 | 0.0 | 0.00 | 0.00 | 0.00 | 71 | 1012.9 | |
| 20260904205023 | 20 | 0.0 | 0.0 | 0.00 | 0.00 | 0.00 | 73 | 1012.8 | |
| 20260904204026 | 20 | 0.0 | 0.0 | 0.00 | 0.00 | 0.00 | 71 | 1012.8 | |
| 20260904203024 | 20 | 0.0 | 0.0 | 0.00 | 0.00 | 0.00 | 70 | 1013.1 | |
| 20260904202022 | 20 | 0.0 | 0.0 | 0.00 | 0.00 | 0.00 | 70 | 1013.1 | |
| 20260904201051 | 21 | 0.0 | 0.0 | 0.00 | 0.00 | 0.00 | 69 | 1013.1 | |
| 20260904200035 | 21 | 0.0 | 0.0 | 0.00 | 0.00 | 0.00 | 67 | 1013.4 | |
| 20260904195045 | 21 | 0.0 | 0.0 | 0.00 | 0.00 | 0.00 | 65 | 1013.5 | |
| 20260904194045 | 22 | 0.0 | 0.0 | 0.00 | 0.00 | 0.00 | 64 | 1013.5 | |
| 20260904193034 | 21 | 275 | 0.0 | 0.0 | 0.00 | 0.00 | 0.00 | 64 | 1013.4 |
| 20260904192048 | 21 | 266 | 0.0 | 0.0 | 0.00 | 0.00 | 0.00 | 65 | 1013.3 |
| 20260904191034 | 21 | 237 | 0.0 | 0.0 | 0.00 | 0.00 | 0.00 | 65 | 1012.9 |
| 20260904190041 | 22 | 263 | 0.0 | 1.6 | 0.00 | 0.00 | 0.00 | 64 | 1013.3 |
| 20260904185049 | 22 | 279 | 0.0 | 0.0 | 0.00 | 0.00 | 0.00 | 63 | 1013.3 |
| 20260904184037 | 23 | 269 | 0.0 | 0.0 | 0.00 | 0.00 | 0.00 | 60 | 1013.3 |